This is the latest recevied weather packets stored in our database for station/object DL0BB-10. If no packets are shown the sender has not sent any weather packets the latest 10 day(s).
| Time | Temp. | Humidity | Pressure | Rain* | Wind** | Luminosity | Snow |
|---|---|---|---|---|---|---|---|
| 1787395458 | 25.56° C | 37% | 1020.6 hPa | - | - | - | - |
| 1787394558 | 25.56° C | 36% | 1020.5 hPa | - | - | - | - |
| 1787393658 | 26.11° C | 35% | 1020.6 hPa | - | - | - | - |
| 1787392758 | 26.67° C | 35% | 1020.4 hPa | - | - | - | - |
| 1787391858 | 25.56° C | 37% | 1020.6 hPa | - | - | - | - |
| 1787390957 | 25.56° C | 36% | 1020.5 hPa | - | - | - | - |
| 1787390057 | 26.11° C | 35% | 1020.3 hPa | - | - | - | - |
| 1787389157 | 26.11° C | 36% | 1020.2 hPa | - | - | - | - |
| 1787388260 | 25.56° C | 36% | 1020 hPa | - | - | - | - |
| 1787387360 | 25.56° C | 36% | 1019.9 hPa | - | - | - | - |
| 1787386460 | 26.11° C | 35% | 1019.7 hPa | - | - | - | - |
| 1787385560 | 25.56° C | 36% | 1019.5 hPa | - | - | - | - |
| 1787384660 | 25.56° C | 36% | 1019.2 hPa | - | - | - | - |
| 1787383760 | 26.11° C | 36% | 1019.1 hPa | - | - | - | - |
| 1787382860 | 26.67° C | 34% | 1019 hPa | - | - | - | - |
| 1787381960 | 25.56° C | 36% | 1019 hPa | - | - | - | - |
| 1787381059 | 25.56° C | 36% | 1018.6 hPa | - | - | - | - |
| 1787380159 | 26.11° C | 35% | 1018.5 hPa | - | - | - | - |
| 1787379259 | 26.67° C | 35% | 1018.3 hPa | - | - | - | - |
| 1787378359 | 25.56° C | 36% | 1018 hPa | - | - | - | - |
| 1787377459 | 26.11° C | 36% | 1017.8 hPa | - | - | - | - |
| 1787376559 | 26.67° C | 34% | 1017.6 hPa | - | - | - | - |
| 1787375659 | 26.11° C | 36% | 1017.4 hPa | - | - | - | - |
| 1787374758 | 25.56° C | 36% | 1017.3 hPa | - | - | - | - |
| 1787373858 | 26.11° C | 35% | 1017.2 hPa | - | - | - | - |
* Rain since midnight (hover to see other rain measurements)
** Current wind speed in m/s (hover to see current wind gust speed)